• Join FlightAware (Why Join?)
  • Login
  • US Flag 
10:49AM EST


 

Airport Tracker/Info


-or-


 

Live Flight TrackerFlight Track Log ✈ GJS6221 ✈ 25-Apr-2013 ✈ KBTV - KLGA

Flight Track Log - Related Links

Times and Time Zones

All times are in EDT time to prevent confusion due to time zone crossing. See the GJS6221 flight status page for this flight to view local times or setup timezone preferences in your user account.

Time Position Orientation Groundspeed Altitude Reporting Facility
EDT Latitude Longitude Course Direction KTS MPH feet Rate Location/Type
03:06PM 44.3894 -73.2856 195° South 288 331 8,900  Level Boston Center
03:07PM 44.2997 -73.3131 192° South 304 350 11,200 2,400 Climbing Boston Center
03:08PM 44.2078 -73.3378 191° South 327 376 13,700 2,500 Climbing Boston Center
03:09PM 44.1119 -73.3508 186° South 348 400 16,200 2,450 Climbing Boston Center
03:10PM 43.9526 -73.3457 196° South  Level FlightAware Approximate
03:10PM 44.0139 -73.3608 184° South 355 409 18,600  Level Boston Center
03:11PM 43.8669 -73.3792 195° South  Level FlightAware Approximate
03:11PM 43.9181 -73.3711 184° South 355 409 21,200  Level Boston Center
03:12PM 43.8156 -73.3867 186° South 355 409 22,000 400 Climbing Boston Center
03:13PM 43.7094 -73.3994 185° South 378 435 22,000  Level Boston Center
03:14PM 43.6114 -73.4064 183° South 387 445 22,000  Level Boston Center
03:16PM 43.5133 -73.4232 180° South  Level Estimated
03:16PM 43.3986 -73.4317 180° South 387 445 22,000  Level Boston Center
03:17PM 43.2900 -73.4414 184° South 387 445 22,000 -450 Level Boston Center
03:18PM 43.1858 -73.4539 185° South 387 445 21,100 -950 Descending Boston Center
03:19PM 43.0647 -73.4661 184° South 387 445 20,100 -550 Descending Boston Center
03:20PM 42.9606 -73.4783 185° South 387 445 20,000 -150 Descending Boston Center
03:21PM 42.8583 -73.4936 186° South 387 445 19,800 -600 Descending Boston Center
03:22PM 42.7603 -73.5006 183° South 387 445 18,800 -900 Descending Boston Center
03:23PM 42.6475 -73.5100 184° South 387 445 18,000 -400 Descending Boston Center
03:24PM 42.5536 -73.5222 185° South 387 445 18,000  Level Boston Center
03:25PM 42.4389 -73.5344 184° South 387 445 18,000  Level Boston Center
03:26PM 42.3489 -73.5667 195° South 377 434 18,000  Level Boston Center
03:27PM 42.2381 -73.6122 197° South 372 428 18,000  Level Boston Center
03:28PM 42.1417 -73.6469 195° South 372 428 18,000  Level Boston Center
03:29PM 42.0433 -73.6842 196° South 372 428 18,000  Level Boston Center
03:30PM 41.9556 -73.7103 192° South 367 422 18,000  Level Boston Center
03:31PM 41.8386 -73.7275 186° South 373 429 18,000 -800 Level Boston Center
03:32PM 41.7489 -73.7422 187° South 373 429 16,400 -1,850 Descending Boston Center
03:33PM 41.6486 -73.7569 186° South 345 397 14,300 -2,000 Descending Boston Center
03:34PM 41.5631 -73.7692 186° South 345 397 12,400 -1,860 Descending Boston Center
03:35PM 41.5000 -73.7833 190° South 331 381 11,200 -1,620 Descending New York TRACON
03:36PM 41.4167 -73.7667 171° South 296 341 9,700 -1,737 Descending New York TRACON
03:37PM 41.3500 -73.7333 159° South 290 334 7,900 -1,895 Descending New York TRACON
03:38PM 41.2667 -73.6833 156° South 284 327 6,100 -1,800 Descending New York TRACON
03:39PM 41.2000 -73.6500 159° South 273 314 4,300 -1,050 Descending New York TRACON
03:40PM 41.1333 -73.6000 151° Southeast 271 312 4,000 -150 Descending New York TRACON
03:41PM 41.0667 -73.5833 169° South 274 315 4,000  Level New York TRACON
03:42PM 40.9833 -73.5833 180° South 266 306 4,000  Level New York TRACON
03:43PM 40.9000 -73.6000 189° South 272 313 4,000  Level New York TRACON
03:44PM 40.8333 -73.6333 201° Southwest 266 306 4,000  Level New York TRACON
03:46PM 40.7945 -73.7994 225° Southwest  Level Estimated
03:46PM 40.8000 -73.8167 225° Southwest 254 292 4,000  Level New York TRACON
03:47PM 40.7833 -73.9000 255° West 250 288 4,000 -50 Level New York TRACON
03:48PM 40.7500 -73.9667 237° Southwest 193 222 3,900 -500 Descending New York TRACON
03:49PM 40.7000 -73.9833 194° South 206 237 3,000 -900 Descending New York TRACON
03:50PM 40.7167 -73.9167 72° East 179 206 2,100 -850 Descending New York TRACON
03:51PM 40.7333 -73.8667 66° East 141 162 1,300 -850 Descending New York TRACON
03:52PM 40.7667 -73.8333 37° Northeast 144 166 400 -900 Descending New York TRACON